Погода в Яковенково

Россия / Республика Крым     45°04′01″N   36°19′10″E
темп.,
°C
ветер,
м/с
пор.,
м/с
влажн.,
%
обл.,
%
осадки,
мм/ч
давл.,
гПа
погр.,
м
21 апреля, ср
ср2100:00+11зюз6983100 0.1 1012373
03:00+10юз69875 0.1 1014218
06:00+10юз569249 0.0 1016171
09:00+11юз558529 0.1 1017233
12:00+11юз67865 0.1 1019386
15:00+11юз69850 0.1 1019431
18:00+11юз68871 0.0 1019306
21:00+10юз46892 0.0 1021138
22 апреля, чт
чт2200:00+10юз468747 0.0 1021137
03:00+10зюз34870 0.0 102289
06:00+9зсз22866 0.0 102218
09:00+11юз2278100 0.0 1023165
12:00+12ююз3376100 0.0 1024313
15:00+12юз457698 0.0 1023292
18:00+11юз458024 0.0 1023219
21:00+11юз44825 0.0 102464
23 апреля, пт
пт2300:00+11зюз56831 0.0 102397
03:00+10зюз33820 0.0 102325
06:00+10юз3382100 0.0 102342
09:00+11ююз45775 0.0 1023186
12:00+12ю5775100 0.0 1023301
15:00+12ююв5776100 0.0 1021293
18:00+12ю5778100 0.0 1020240
21:00+11ююз4580100 0.0 1020116
24 апреля, сб
сб2400:00+11ююз698256 0.0 1019206
03:00+11юз57860 0.0 1019148
06:00+10з45865 0.0 1018154
09:00+11зсз678011 0.0 1019469
12:00+12сз5672100 0.0 1020370
15:00+13ссз236666 0.0 1020367
18:00+12вюв1265100 0.0 1020249
21:00+10юз017365 0.0 102212
25 апреля, вс
вс2500:00+9сз6967100 0.0 1022328
03:00+8ссз5872100 0.0 1022279
06:00+8с5767100 0.0 1022342
09:00+9ссв6750100 0.0 1022823
12:00+10ссв6645100 0.0 10211154
15:00+10ссв6646100 0.0 1020984
18:00+10ссв5545100 0.0 1020782
21:00+8с345198 0.0 1021202